Flag for France Weather past 2 weeks in Mulhouse, France

Now
52 °F

Passing clouds.


Feels Like: 52 °F
Forecast: 44 / 61 °F
Wind: No wind

Location: Bale-Mulhouse

Current Time: Oct 25, 2014 at 11:30:34 PM

Latest Report: Oct 25, 2014 at 11:00 PM


Visibility: 6 mi

Pressure: 30.21 "Hg

Humidity: 94%

Dew point: 50 °F

Location of MulhouseLocation

Historic Weather in Mulhouse — Graph

°F

Mulhouse temperature yesterday

Maximum temperature yesterday: 55 °F (at 4:00 PM)
Minimum temperature yesterday: 34 °F (at 5:00 AM)
Average temperature yesterday: 45 °F

Past Weeks' High & Low Weather Summary

 TemperatureHumidityPressure
High75 °F (Oct 18, 4:30 PM)100% (Oct 11, 4:00 AM)30.30 "Hg (Oct 11, 4:00 AM)
Low34 °F (Oct 24, 5:00 AM)44% (Oct 23, 3:30 PM)29.74 "Hg (Oct 13, 5:00 AM)
Average56 °F85%30.02 "Hg
* Reported Oct 10 10:00 PM — Oct 25 10:00 PM, Mulhouse, Weather by CustomWeather, © 2014

Note: Actual official high and low records may vary slightly from our data, if they occured in-between our weather recording intervals... More about our weather records

Advertising

Mulhouse weather history for previous 24 hours

 ConditionsComfort  
Time TempWeatherWind HumidityBarometerVisibility
10:00 PM
Oct 25
52 °FPartly cloudy.1 mph94%30.21 "Hg6 mi
9:30 PM52 °FPassing clouds.2 mph94%30.21 "HgN/A
9:00 PM54 °FPassing clouds.No wind88%30.21 "HgN/A
8:30 PM54 °FLight rain. Passing clouds.2 mph88%30.18 "HgN/A
8:00 PM54 °FLight rain. Passing clouds.6 mph88%30.18 "HgN/A
7:30 PM54 °FLight rain. Passing clouds.2 mph82%30.18 "HgN/A
7:00 PM55 °FLight rain. Partly sunny.3 mph88%30.15 "HgN/A
6:30 PM57 °FPartly sunny.2 mph77%30.15 "HgN/A
6:00 PM59 °FPartly sunny.2 mph72%30.15 "HgN/A
5:30 PM59 °FPartly sunny.No wind68%30.15 "HgN/A
5:00 PM59 °FPartly sunny.1 mph68%30.15 "HgN/A
4:30 PM59 °FSunny.2 mph68%30.15 "Hg10 mi
4:00 PM61 °FSunny.3 mph68%30.15 "Hg10 mi
3:30 PM61 °FPartly sunny.3 mph63%30.12 "HgN/A
3:00 PM61 °FPartly sunny.1 mph63%30.12 "HgN/A
2:30 PM59 °FPassing clouds.3 mph68%30.12 "HgN/A
2:00 PM59 °FPassing clouds.3 mph68%30.15 "HgN/A
1:30 PM59 °FScattered clouds.3 mph68%30.15 "HgN/A
1:00 PM55 °FSunny.2 mph77%30.15 "Hg10 mi
12:30 PM54 °FPartly sunny.3 mph82%30.15 "HgN/A
12:00 PM54 °FBroken clouds.5 mph82%30.15 "HgN/A
11:30 AM52 °FBroken clouds.7 mph82%30.15 "Hg6 mi
11:00 AM50 °FLight rain. Broken clouds.5 mph88%30.15 "Hg5 mi
10:30 AM50 °FLight rain. Broken clouds.5 mph88%30.15 "Hg4 mi
10:00 AM50 °FLight rain. Broken clouds.2 mph82%30.15 "Hg6 mi
9:30 AM50 °FSunny.2 mph82%30.15 "Hg10 mi
9:00 AM48 °FClear.2 mph87%30.12 "Hg10 mi
8:30 AM48 °FClear.2 mph87%30.12 "Hg10 mi
8:00 AM48 °FClear.3 mph87%30.12 "Hg10 mi
7:30 AM48 °FClear.3 mph87%30.09 "Hg10 mi
7:00 AM48 °FClear.3 mph87%30.09 "Hg10 mi
6:30 AM48 °FClear.3 mph87%30.09 "Hg10 mi
6:00 AM48 °FClear.1 mph82%30.09 "Hg10 mi
5:30 AM48 °FClear.3 mph82%30.09 "Hg10 mi
5:00 AM48 °FClear.3 mph87%30.09 "Hg10 mi
4:30 AM48 °FClear.3 mph82%30.09 "Hg10 mi
4:00 AM48 °FClear.5 mph87%30.09 "HgN/A
3:30 AM48 °FClear.3 mph82%30.09 "HgN/A
3:00 AM48 °FClear.3 mph82%30.09 "HgN/A
2:30 AM48 °FClear.3 mph82%30.09 "HgN/A
2:00 AM48 °FClear.3 mph82%30.09 "HgN/A
1:30 AM48 °FClear.5 mph82%30.09 "HgN/A
1:00 AM48 °FClear.2 mph82%30.09 "HgN/A
12:30 AM48 °FClear.2 mph82%30.09 "HgN/A
12:00 AM48 °FPassing clouds.3 mph82%30.09 "HgN/A
11:30 PM
Oct 24
50 °FPassing clouds.5 mph76%30.12 "HgN/A
11:00 PM50 °FClear.2 mph76%30.12 "Hg10 mi
Weather by CustomWeather, © 2014

See weather overviewHow to use our weather pages